Meteo Giornale » Osservazioni meteo Francia » Le Luc

ore: 05:00 - Osservazioni Meteo Le Luc
Lat. 43° 23' N Lon. 6° 23' E Alt. 80 metri s.l.m.

sereno Europe/Paris

18 °C

Sereno

Temp. 24 Ore

17 °C

22 °C

Nord

3.7 Km/h

Dew point 17 °C

Umidità 93 %

Visibilità  10 Km

Il sole sorge alle ore 07:20

Il sole tramonta alle ore 19:33

Data e Ora Cielo e Fenomeni T °C DP °C Um. % Pres. hPa Vis. km Vento km/h
Oggi h: 05:00 sereno Sereno 18 17 93 1014 10 N 3.7
Oggi h: 04:30 poco_nuvoloso Poco Nuvoloso 18 17 93 1014 10 N 3.7
Oggi h: 04:00 sereno Sereno 18 17 93 1014 10 N 1.8
Oggi h: 03:30 sereno Sereno 18 17 93 1014 10 N 0
Oggi h: 03:00 sereno Sereno 18 17 93 1015 10 N 0
Oggi h: 02:30 poco_nuvoloso Poco Nuvoloso 19 16 82 1015 10 N 5.5
Oggi h: 02:00 molto_nuvoloso Molto Nuvoloso 19 16 82 1015 10 E/NE 9.3
Oggi h: 01:30 coperto Coperto 18 16 88 1015 10 NE 7.4
Oggi h: 01:00 coperto Coperto 19 17 88 1015 10 E/NE 18.5
Oggi h: 00:30 molto_nuvoloso Molto Nuvoloso 18 17 93 1015 10 E/NE 22.2
Oggi h: 00:00 molto_nuvoloso Molto Nuvoloso 18 16 88 1015 10 NE 22.2
Ieri h: 23:30 coperto_pioggia Pioggia Debole 18 16 88 1016 10 E/NE 24
Ieri h: 23:00 coperto_pioggia Pioggia Debole 18 16 88 1016 10 E/NE 11.1
Ieri h: 22:30 coperto_pioggia Pioggia Debole 18 16 88 1017 10 E 14.8
Ieri h: 22:00 coperto_pioggia Pioggia Debole 17 16 93 1017 10 N 3.7
Ieri h: 21:30 coperto_pioggia Pioggia Debole 17 15 88 1017 10 N 3.7
Ieri h: 21:00 coperto_pioggia Pioggia 17 15 88 1017 10 N 1.8
Ieri h: 20:30 coperto_pioggia Pioggia Temporale nelle Vicinanze 17 15 88 1017 8 N 1.8
Ieri h: 20:00 coperto_pioggia Pioggia Debole 17 15 88 1017 10 N 5.5
Ieri h: 19:30 coperto_pioggia Pioggia 18 15 82 1017 10 E/NE 13
Ieri h: 19:00 coperto_pioggia Pioggia Debole 18 14 77 1018 10 E 11.1
Ieri h: 18:00 coperto_pioggia Pioggia Debole 20 14 68 1018 10 E 9.3
Ieri h: 17:00 coperto_pioggia Pioggia Debole 21 13 60 1018 10 E 18.5
Ieri h: 16:30 molto_nuvoloso Molto Nuvoloso 21 14 64 1018 10 E 18.5
Ieri h: 16:00 coperto_pioggia Pioggia Debole 20 15 72 1019 10 E 9.3
Ieri h: 15:30 coperto_pioggia Pioggia Debole 20 16 77 1019 10 N 3.7
Ieri h: 15:00 coperto_pioggia Pioggia Debole 20 16 77 1018 10 E 14.8
Ieri h: 14:30 coperto_pioggia Pioggia Debole 20 15 72 1019 10 E 11.1
Ieri h: 14:00 poco_nuvoloso Poco Nuvoloso 19 16 82 1020 10 E 11.1
Ieri h: 13:30 coperto_pioggia Pioggia Debole 19 16 82 1021 10 E 13
Ieri h: 13:00 coperto_pioggia Pioggia Debole 21 14 64 1021 10 E 20.3
Ieri h: 12:30 sereno Sereno 22 12 53 1021 10 E 24
Ieri h: 12:00 sereno Sereno 22 13 56 1021 10 E 27.8
Ieri h: 11:30 sereno Sereno 22 13 56 1021 10 E 24
Ieri h: 11:00 sereno Sereno 22 14 60 1021 10 E 24
Ieri h: 10:30 sereno Sereno 22 14 60 1020 10 E 22.2
Ieri h: 09:30 sereno Sereno 21 14 64 1020 10 E/NE 11.1
Ieri h: 09:00 sereno Sereno 20 14 68 1021 10 E/NE 7.4
Ieri h: 08:30 sereno Sereno 18 14 77 1020 10 NE 9.3
Ieri h: 08:00 sereno Sereno 18 14 77 1020 10 NE 9.3
Ieri h: 07:30 sereno Sereno 17 14 82 1020 10 NE 7.4
Ieri h: 07:00 sereno Sereno 17 14 82 1020 10 NE 11.1